Location: Newark
(54.2500°N, 9.1833°E)
Time: 00:21:40
(UTC+00:00)

Vanguard 3 - Visible Passes

Search period start: 15 December 2019 00:00
Search period end: 25 December 2019 00:00
Orbit: 508 x 3263 km, 33.3° (Epoch: 13 December)

Date Brightness Start Highest point End Pass type
(mag) Time Alt. Az. Time Alt. Az. Time Alt. Az.
15 Dec 10.3 06:41:31 10° S 06:45:50 16° SSE 06:51:28 10° ESE visible
17 Dec 10.2 06:25:50 10° S 06:29:20 14° SSE 06:33:43 10° SE visible
19 Dec 10.1 06:10:24 10° S 06:12:56 12° SSE 06:15:55 10° SE visible
21 Dec 10.0 05:55:42 10° S 05:56:36 10° SSE 05:57:32 10° SSE visible
22 Dec 10.0 06:51:50 10° SSW 06:53:38 11° S 06:55:38 10° SSE visible
